Weather History for Windsor Locks, CT

Change the Weather History Date:

Monday, January 2, 2012

  Actual Average Record
Temperature  
Mean Temperature 40 °F 27 °F  
Max Temperature 48 °F 35 °F 57 °F (1979)
Min Temperature 31 °F 18 °F -8 °F (1918)
Degree Days  
Heating Degree Days 25 38  
Month to date heating degree days 48 76  
Since 1 July heating degree days 1855 2320  
Cooling Degree Days 0 0  
Month to date cooling degree days 0 0  
Year to date cooling degree days 0 0  
Moisture  
Dew Point 27 °F    
Average Humidity 64    
Maximum Humidity 93    
Minimum Humidity 34    
Precipitation  
Precipitation T in 0.10 in 1.74 in (1987)
Month to date precipitation 0.11 0.20  
Year to date precipitation 0.11 0.20  
Snow  
Snow 0.00 in 0.40 in 5.60 in (1987)
Month to date snowfall 0.0 0.8  
Since 1 July snowfall 12.3 10.2  
Snow Depth -    
Sea Level Pressure  
Sea Level Pressure 29.66 in    
Wind  
Wind Speed 12 mph (WSW)    
Max Wind Speed 25 mph    
Max Gust Speed 31 mph    
Visibility 10 miles    
Events Rain    
T = Trace of Precipitation, MM = Missing Value Source: NWS Daily Summary

Daily Weather History Graph

Daily Weather History Graph

Search for Another Location

Airport:

Trip Planner

Search our weather history database for the weather conditions in past years. The results will help you decide how hot, cold, wet, or windy it might be!

Date:

Astronomy

Jan. 02, 2012 Rise Set
Actual Time 7:18 AM EST 4:30 PM EST
Civil Twilight 6:47 AM EST 5:02 PM EST
Nautical Twilight 6:12 AM EST 5:37 PM EST
Astronomical Twilight 5:38 AM EST 6:11 PM EST
Moon 11:48 AM EST (1/2) 1:06 AM EST (1/2)
Length of Visible Light 10h 15m
Length of Day
9h 12m
Waxing Gibbous, 63% of the Moon is Illuminated
Jan 2
Waxing Gibbous
Jan 9
Full
Jan 16
Last Quarter
Jan 23
New
Jan 30
First Quarter

Hourly Weather History & Observations

Time (EST) Temp. Windchill Dew Point Humidity Pressure Visibility Wind Dir Wind Speed Gust Speed Precip Events Conditions
12:00 AM 48.2 °F - 46.4 °F 93% 29.62 in 10.0 mi South 8.1 mph - 0.00 in   Overcast
12:15 AM 48.2 °F - 46.4 °F 93% 29.61 in 10.0 mi South 10.4 mph - 0.00 in   Overcast
12:51 AM 46.4 °F 41.1 °F 44.6 °F 93% 29.59 in 10.0 mi South 11.5 mph - N/A   Mostly Cloudy
1:51 AM 46.9 °F - 45.0 °F 93% 29.58 in 10.0 mi South 10.4 mph - N/A   Mostly Cloudy
2:51 AM 46.0 °F 41.9 °F 39.9 °F 79% 29.60 in 10.0 mi SW 8.1 mph - N/A   Mostly Cloudy
3:20 AM 42.8 °F 33.8 °F 33.8 °F 70% 29.61 in 10.0 mi NW 21.9 mph 28.8 mph N/A   Overcast
3:30 AM 41.0 °F 31.6 °F 33.8 °F 76% 29.61 in 10.0 mi NW 20.7 mph 27.6 mph 0.00 in Rain Light Rain
3:35 AM 41.0 °F 32.2 °F 33.8 °F 76% 29.61 in 10.0 mi WNW 18.4 mph 27.6 mph 0.00 in Rain Light Rain
3:51 AM 39.9 °F 32.9 °F 34.0 °F 79% 29.62 in 10.0 mi WNW 11.5 mph - 0.00 in   Mostly Cloudy
4:51 AM 37.0 °F 33.3 °F 33.1 °F 86% 29.61 in 10.0 mi WSW 4.6 mph - N/A   Scattered Clouds
5:51 AM 39.0 °F 32.8 °F 30.9 °F 73% 29.61 in 10.0 mi SW 9.2 mph - N/A   Partly Cloudy
6:51 AM 37.0 °F 29.3 °F 28.9 °F 73% 29.62 in 10.0 mi WSW 11.5 mph - N/A   Mostly Cloudy
7:51 AM 39.0 °F 31.8 °F 28.0 °F 65% 29.64 in 10.0 mi WSW 11.5 mph - N/A   Mostly Cloudy
8:51 AM 37.9 °F 28.9 °F 25.0 °F 60% 29.65 in 10.0 mi West 16.1 mph - N/A   Partly Cloudy
9:51 AM 39.9 °F 31.4 °F 21.9 °F 49% 29.66 in 10.0 mi West 16.1 mph - N/A   Clear
10:51 AM 41.0 °F 32.5 °F 19.0 °F 41% 29.66 in 10.0 mi WSW 17.3 mph 24.2 mph N/A   Scattered Clouds
11:51 AM 41.0 °F 31.9 °F 17.1 °F 38% 29.64 in 10.0 mi West 19.6 mph 24.2 mph N/A   Partly Cloudy
12:51 PM 42.1 °F 33.6 °F 18.0 °F 38% 29.63 in 10.0 mi WSW 18.4 mph 23.0 mph N/A   Scattered Clouds
1:51 PM 41.0 °F 32.2 °F 16.0 °F 36% 29.63 in 10.0 mi WSW 18.4 mph 31.1 mph N/A   Scattered Clouds
2:51 PM 41.0 °F 32.8 °F 17.1 °F 38% 29.65 in 10.0 mi WSW 16.1 mph 24.2 mph N/A   Partly Cloudy
3:51 PM 39.0 °F 28.8 °F 17.1 °F 41% 29.66 in 10.0 mi WSW 21.9 mph 26.5 mph N/A   Scattered Clouds
4:51 PM 37.0 °F 29.8 °F 17.1 °F 44% 29.68 in 10.0 mi WSW 10.4 mph - N/A   Scattered Clouds
5:51 PM 37.0 °F 30.4 °F 18.0 °F 46% 29.72 in 10.0 mi WSW 9.2 mph - N/A   Mostly Cloudy
6:51 PM 35.1 °F 30.1 °F 23.0 °F 61% 29.74 in 10.0 mi WNW 5.8 mph - N/A   Mostly Cloudy
7:51 PM 35.1 °F 30.1 °F 23.0 °F 61% 29.75 in 10.0 mi SW 5.8 mph - N/A   Mostly Cloudy
8:51 PM 35.1 °F 29.3 °F 21.0 °F 57% 29.75 in 10.0 mi SW 6.9 mph - N/A   Mostly Cloudy
9:51 PM 33.1 °F 26.1 °F 21.0 °F 61% 29.75 in 10.0 mi SW 8.1 mph - N/A   Scattered Clouds
10:51 PM 30.9 °F 27.5 °F 21.0 °F 67% 29.76 in 10.0 mi SW 3.5 mph - N/A   Mostly Cloudy
11:51 PM 32.0 °F 25.6 °F 21.0 °F 64% 29.75 in 10.0 mi SW 6.9 mph - N/A   Mostly Cloudy